Location: �clusier
(49.9361°N, 2.7869°E)
Time: 00:39:17
(UTC+00:00)

SL-16 R/B - Visible Passes

Search period start: 24 October 2021 00:00
Search period end: 03 November 2021 00:00
Orbit: 840 x 850 km, 71.0° (Epoch: 23 October)

Date Brightness Start Highest point End Pass type
(mag) Time Alt. Az. Time Alt. Az. Time Alt. Az.
24 Oct 4.4 04:59:01 10° N 05:03:19 21° NE 05:07:36 10° E visible
25 Oct 4.4 04:44:55 10° N 04:49:09 21° NE 04:53:23 10° E visible
26 Oct 4.4 04:30:49 10° N 04:35:01 20° NE 04:39:11 10° E visible
27 Oct 4.5 04:16:42 10° N 04:20:51 20° NE 04:24:59 10° E visible
28 Oct 4.5 04:02:37 10° N 04:06:42 20° NE 04:10:47 10° E visible
28 Oct 2.5 05:46:08 10° NNW 05:51:51 73° ENE 05:57:32 10° SE visible
29 Oct 4.5 03:48:30 10° N 03:52:33 19° NE 03:56:34 10° E visible
29 Oct 2.5 05:32:01 10° NNW 05:37:45 71° ENE 05:43:25 10° SE visible
30 Oct 4.5 03:34:25 10° N 03:38:24 19° NE 03:42:22 10° E visible
30 Oct 2.5 05:17:54 10° NNW 05:23:37 69° ENE 05:29:17 10° SE visible
31 Oct 4.5 03:20:19 10° N 03:24:14 19° NE 03:28:10 10° ENE visible
31 Oct 2.6 05:03:47 10° NNW 05:09:30 67° ENE 05:15:09 10° SE visible
01 Nov 4.6 03:06:27 11° N 03:10:06 18° NE 03:13:57 10° ENE visible
01 Nov 2.6 04:49:40 10° NNW 04:55:22 65° ENE 05:01:01 10° SE visible
02 Nov 4.6 02:53:08 13° N 02:55:56 18° NE 02:59:44 10° ENE visible
02 Nov 2.6 04:35:33 10° NNW 04:41:15 64° ENE 04:46:53 10° SE visible
